User: anonymous   Login
Location: Newark
(45.6000°N, 12.8833°E)
Time: 01:50:15
(UTC+00:00)
Language:

Courier 1B Rocket - Orbit

View from above orbital plane
View from above orbital plane
View from above satellite
View from above satellite

Ground track
Ground track

The orbit data is extracted from the following two-line orbital elements,

1    59U 60013B   19325.80827167  .00000093  00000-0  75020-5 0  9994
2    59  28.2476 209.9660 0189172 334.9286  24.2174 13.52972040918832
Epoch (UTC): 21 November 2019 19:23:54
Eccentricity: 0.0189172
inclination: 28.2476°
perigee height: 920 km
apogee height: 1202 km
right ascension of ascending node: 209.9660°
argument of perigee: 334.9286°
revolutions per day: 13.52972040
mean anomaly at epoch: 24.2174°
orbit number at epoch: 91883

The dashed part of the orbit path shows where the satellite is in the earth's shadow,  

DLR